• Join FlightAware (Why Join?)
  • Login
  • US Flag 
06:57AM EDT


 

Airport Tracker/Info


-or-


 

Live Flight TrackerFlight Track Log ✈ SPTR648 ✈ 24-Apr-2013 ✈ YPJT / JAD - YPJT / JAD

Flight Track Log - Related Links

Times and Time Zones

All times are in EDT time to prevent confusion due to time zone crossing. See the SPTR648 flight status page for this flight to view local times or setup timezone preferences in your user account.

Time Position Orientation Groundspeed Altitude Reporting Facility
EDT Latitude Longitude Course Direction KTS MPH feet Rate Location/Type
03:21AM -32.2971 116.1468 129° Southeast 5,500  Level Aus ATC (Calculated)
03:23AM -32.3569 116.2267 126° Southeast 5,500 -540 Level Aus ATC (Calculated)
03:23AM -32.4148 116.3210 359° North 110 127 4,400 -1,560 Descending Aus ATC (RADAR)
03:24AM -32.3969 116.3205 359° North 109 125 4,200 -300 Descending Aus ATC (RADAR)
03:25AM -32.3649 116.3218 North 112 129 4,000 -180 Descending Aus ATC (RADAR)
03:26AM -32.3454 116.3227 North 103 119 3,900  Descending Aus ATC (RADAR)
03:27AM -32.3192 116.3212 357° North 104 120 4,000 60 Climbing Aus ATC (RADAR)
03:27AM -32.3023 116.3200 357° North 106 122 4,000  Level Aus ATC (RADAR)
03:28AM -32.2711 116.3199 360° North 102 117 4,000  Level Aus ATC (RADAR)
03:28AM -32.2643 116.3201 North 100 115 4,000  Level Aus ATC (RADAR)
03:29AM -32.2455 116.3233 North 99 114 4,000 60 Level Aus ATC (RADAR)
03:30AM -32.2206 116.3318 16° North 101 116 4,100  Climbing Aus ATC (RADAR)
03:31AM -32.2037 116.3389 20° North 106 122 4,000 -120 Descending Aus ATC (RADAR)
03:32AM -32.1749 116.3523 22° Northeast 110 127 4,000  Level Aus ATC (RADAR)
03:32AM -32.1578 116.3544 North 108 124 4,000  Level Aus ATC (RADAR)
03:34AM -32.1177 116.3484 353° North 112 129 4,000  Level Aus ATC (RADAR)
03:34AM -32.0941 116.3448 353° North 99 114 4,000  Level Aus ATC (RADAR)
03:35AM -32.0671 116.3415 354° North 93 107 4,100  Climbing Aus ATC (RADAR)
03:36AM -32.0505 116.3387 352° North 103 119 4,000 -360 Descending Aus ATC (RADAR)
03:37AM -32.0219 116.3311 347° North 107 123 3,600 -420 Descending Aus ATC (RADAR)
03:38AM -32.0038 116.3253 345° North 115 132 3,400 -420 Descending Aus ATC (RADAR)
03:39AM -31.9806 116.2876 306° West 112 129 2,900 -300 Descending Aus ATC (RADAR)
03:39AM -31.9792 116.2789 281° West 109 125 3,000 120 Climbing Aus ATC (RADAR)
03:40AM -31.9760 116.2594 281° West 102 117 3,000  Level Aus ATC (RADAR)
03:41AM -31.9685 116.2162 282° West 96 110 3,000  Level Aus ATC (RADAR)
03:42AM -31.9624 116.1871 284° West 97 112 3,000  Level Aus ATC (RADAR)
03:42AM -31.9609 116.1792 283° West 97 112 3,000  Level Aus ATC (RADAR)
03:43AM -31.9741 116.1526 240° Southwest 103 119 3,000  Level Aus ATC (RADAR)
03:44AM -31.9951 116.1515 183° South 101 116 3,000  Level Aus ATC (RADAR)
03:44AM -32.0045 116.1514 181° South 102 117 3,000  Level Aus ATC (RADAR)
03:45AM -32.0212 116.1503 183° South 103 119 3,000  Level Aus ATC (RADAR)
03:46AM -32.0472 116.1467 187° South 106 122 3,000  Level Aus ATC (RADAR)
03:47AM -32.0642 116.1440 188° South 107 123 3,000  Level Aus ATC (RADAR)
03:47AM -32.0875 116.1383 192° South 105 121 3,000 -480 Level Aus ATC (RADAR)
03:49AM -32.1356 116.1311 187° South 117 135 1,900 -720 Descending Aus ATC (RADAR)
03:49AM -32.1432 116.1282 198° South 114 131 1,800  Descending Aus ATC (RADAR)
03:50AM -32.1500 116.1118 244° Southwest 97 112 1,900 60 Climbing Aus ATC (RADAR)
03:51AM -32.1493 116.0749 271° West 101 116 1,900  Level Aus ATC (RADAR)
03:51AM -32.1490 116.0542 271° West 92 106 1,900 -60 Level Aus ATC (RADAR)
03:53AM -32.1759 116.0352 211° Southwest 97 112 1,800 -180 Descending Aus ATC (RADAR)
03:54AM -32.1759 116.0015 270° West 101 116 1,600 -180 Descending Aus ATC (RADAR)
03:54AM -32.1724 115.9946 301° West 95 109 1,600 -120 Level Aus ATC (RADAR)
03:54AM -32.1655 115.9763 294° West 101 116 1,500  Descending Aus ATC (RADAR)
03:56AM -32.1540 115.9431 292° West 100 115 1,600 60 Climbing Aus ATC (RADAR)
03:56AM -32.1426 115.9296 315° West 97 112 1,600  Level Aus ATC (RADAR)
03:57AM -32.1213 115.9063 317° Northwest 96 110 1,600 -60 Level Aus ATC (RADAR)
03:58AM -32.1091 115.8929 317° Northwest 101 116 1,500 -180 Descending Aus ATC (RADAR)
03:59AM -32.1025 115.8683 287° West 88 101 1,400 -120 Descending Aus ATC (RADAR)